This is the latest recevied weather packets stored in our database for station/object GW1469. If no packets are shown the sender has not sent any weather packets the latest 10 day(s).
| Time | Temp. | Humidity | Pressure | Rain* | Wind** | Luminosity | Snow |
|---|---|---|---|---|---|---|---|
| 1777972872 | 7.78° C | 99% | 1023.7 hPa | 0 mm | - | - | - |
| 1777972173 | 7.78° C | 99% | 1023.3 hPa | 0 mm | - | - | - |
| 1777971810 | 7.78° C | 99% | 1023.3 hPa | 0 mm | - | - | - |
| 1777970370 | 8.33° C | 99% | 1023.3 hPa | 0 mm | - | - | - |
| 1777967849 | 7.78° C | 99% | 1023.3 hPa | 0 mm | - | - | - |
| 1777967471 | 7.78° C | 99% | 1023 hPa | 0 mm | - | - | - |
| 1777966779 | 7.78° C | 99% | 1023.3 hPa | 0 mm | - | - | - |
| 1777959570 | 8.89° C | 99% | 1022.6 hPa | 0 mm | - | - | - |
| 1777959189 | 8.89° C | 99% | 1022.6 hPa | 0 mm | - | - | - |
| 1777958137 | 9.44° C | 99% | 1022.6 hPa | 0 mm | - | - | - |
| 1777949863 | 11.67° C | 91% | 1022 hPa | 2.79 mm | - | - | - |
| 1777946966 | 12.22° C | 87% | 1022 hPa | 2.79 mm | - | - | - |
| 1777946597 | 12.22° C | 86% | 1022 hPa | 2.79 mm | - | - | - |
| 1777945158 | 13.33° C | 85% | 1022 hPa | 2.79 mm | - | - | - |
| 1777943736 | 13.89° C | 81% | 1022 hPa | 2.79 mm | - | - | - |
| 1777943011 | 14.44° C | 78% | 1022 hPa | 2.79 mm | - | - | - |
| 1777940113 | 17.22° C | 70% | 1021.6 hPa | 2.79 mm | - | - | - |
| 1777939035 | 18.33° C | 63% | 1021.6 hPa | 2.79 mm | - | - | - |
| 1777937621 | 19.44° C | 56% | 1021.6 hPa | 2.79 mm | - | - | - |
| 1777935107 | 22.22° C | 49% | 1022 hPa | 2.79 mm | - | - | - |
| 1777934376 | 22.22° C | 46% | 1022 hPa | 2.79 mm | - | - | - |
| 1777933996 | 22.78° C | 46% | 1022 hPa | 2.79 mm | - | - | - |
| 1777932196 | 23.89° C | 36% | 1021.6 hPa | 2.79 mm | - | - | - |
| 1777929328 | 25.56° C | 39% | 1022 hPa | 2.79 mm | - | - | - |
| 1777928990 | 25.56° C | 37% | 1022 hPa | 2.79 mm | - | - | - |
* Rain since midnight (hover to see other rain measurements)
** Current wind speed in m/s (hover to see current wind gust speed)